www.pogodaiklimat.ru

Погода и климат >> Архив погоды >> Россия >> Приморский край >> Тимирязевский


АРХИВ ПОГОДЫ в Тимирязевском

Время (UTC), дата Ветер
(напр.,м/с)
 
Видим.   Явления Облачность Т
(С)
Тd
(С)
f
(%)
Тe
(С)
Тes
(С)
Комфортность P
(гПа)
Po
(гПа)
Тmin
(С)
Tmax
(С)
R
(мм)
R24
(мм)
S
(см)
06 17.02 З 7-10
{12}
20 км 3/3 600 м
[Sc]
+5.1 -19.5 15 +1 +2 1013.5 1009.1
09 17.02 С 3
{12}
50 км ясно -0.6 -18.5 24 -4 -4 1015.1 1010.6 +5.3
12 17.02 СВ 2 50 км ясно -5.6 -17.7 38 -9 -9 1018.1 1013.5
15 17.02 штиль 0 50 км ясно -8.9 -17.7 49 -9 -9 1020.2 1015.6
18 17.02 ЮВ 1 50 км ясно -12.7 -18.5 62 -15 -15 1021.4 1016.7
21 17.02 Ю 3 50 км ясно -11.5 -16.8 65 -17 -17 1022.1 1017.4 -14.2
00 18.02 Ю 3 10 км ясно -5.1 -15.5 44 -10 -8 1023.4 1018.9
03 18.02 Ю 3 20 км ясно +3.8 -16.7 21 +1 +7 1022.6 1018.2
06 18.02 Ю 5 20 км ясно +5.9 -17.6 17 +3 +5 1019.9 1015.5
09 18.02 Ю 3
{11}
10 км ясно +2.7 -11.9 33 -0 -0 1019.7 1015.3 +6.1
12 18.02 Ю 3 10 км ясно -0.3 -7.0 61 -5 -5 1021.3 1016.8
15 18.02 Ю 5 10 км 6/0
[Ci fib]
-1.1 -5.7 71 -7 -7 1021.7 1017.2
18 18.02 Ю 4 10 км 10/0
[Cs]
-2.3 -4.8 83 -8 -8 1021.5 1017.0
21 18.02 ЮЗ 1 10 км 10/0
[Ci fib]
-4.6 -6.2 89 -7 -7 1020.8 1016.2 -4.6
00 19.02 штиль 0 4000 м дым 10/4 600 м
[Sc Ci fib]
-5.9 -8.0 85 -7 -5 1021.1 1016.5 -9.6
03 19.02 Ю 1 4000 м дым 10/0
[Cs]
+2.4 -4.4 61 +1 +8 1019.0 1014.6
06 19.02 З 1 10 км 10/0
[As op]
+3.9 -6.8 46 +3 +4 1016.4 1012.0
09 19.02 штиль 0 10 км 10/0
[As op]
+1.8 -7.5 50 +1 +1 1015.5 1011.1 +4.1
12 19.02 С 2 10 км 10/0
[As trans]
-0.8 -10.9 46 -4 -4 1015.7 1011.2
15 19.02 С 2 10 км 10/0
[Ci fib]
-3.6 -12.7 49 -7 -7 1016.7 1012.2
18 19.02 штиль 0 10 км 10/0
[Cs]
-2.5 -12.8 45 -3 -3 1017.5 1013.0
21 19.02 СВ 2 10 км 9/0
[Ci fib]
-4.4 -13.4 49 -8 -8 1017.7 1013.2 -4.6
00 20.02 СЗ 1 4000 м дым 10/0
[Ac trans Ci fib]
-3.0 -12.2 49 -5 -2 1019.4 1014.9 -7.3
03 20.02 С 3 10 км 10/0
[As op]
+1.9 -13.0 32 -1 0 1019.7 1015.2
06 20.02 С 4 10 км 10/0
[Ci sp]
+3.8 -13.6 27 0 +2 1019.0 1014.5
09 20.02 СВ 1 10 км 8/0
[Ci fib]
0.0 -16.0 29 -1 -1 1020.3 1015.8 +4.2
12 20.02 штиль 0 20 км 10/0
[Ci fib]
-5.5 -15.6 45 -6 -6 1022.1 1017.6
15 20.02 Ю 1 20 км 10/0
[Ci fib]
-6.9 -14.7 54 -9 -9 1023.2 1018.6
18 20.02 Ю 1 20 км 10/0
[Ci fib]
-9.0 -14.6 64 -11 -11 1023.8 1019.2
21 20.02 В 1 20 км ясно -12.8 -15.9 78 -15 -15 1023.8 1019.1 -12.8
00 21.02 штиль 0 4000 м дым ясно -5.1 -10.4 66 -6 -2 1024.1 1019.5 -13.2
03 21.02 СЗ 5 10 км ясно +5.6 -13.4 24 +2 +6 1022.5 1018.1
06 21.02 СЗ 5
{11}
10 км ясно +8.3 -17.0 15 +6 +8 1019.7 1015.4
09 21.02 СЗ 1 20 км 3/0
[Ac trans Ci fib]
+2.7 -16.6 23 +2 +2 1019.7 1015.3 +8.5
12 21.02 Ю 2 20 км ясно -2.2 -14.5 38 -5 -5 1020.2 1015.7
15 21.02 Ю 3 20 км ясно -4.9 -14.0 49 -10 -10 1020.7 1016.1
18 21.02 В 1 20 км ясно -9.6 -15.1 64 -12 -12 1020.9 1016.3
21 21.02 В 1 4000 м дым ясно -12.3 -16.1 73 -15 -15 1021.1 1016.4 -12.3
00 22.02 штиль 0 4000 м дым ясно -4.1 -11.7 55 -5 -1 1022.3 1017.7
03 22.02 С 2 4000 м дым 8/0
[Ci fib]
+6.3 -13.6 22 +5 +12 1020.7 1016.4
06 22.02 СЗ 6 20 км 6/6 600 м
[Cu med, cong]
+8.0 -15.3 17 +5 +6 1017.9 1013.6
09 22.02 СВ 1
{10}
20 км 10/8 600 м
[Sc diur, vesp Ci fib]
+3.9 -13.7 26 +4 +4 1018.1 1013.7 +8.3
12 22.02 СЗ 1 20 км 10/0
[Ci fib]
-2.2 -14.6 38 -3 -3 1020.1 1015.6
15 22.02 СЗ 2 20 км 10/0
[Ac trans Ci fib]
-3.3 -14.0 43 -7 -7 1021.4 1016.9
18 22.02 ЮЗ 1 20 км ясно -8.1 -14.1 62 -10 -10 1023.5 1018.9
21 22.02 Ю 1 20 км ясно -9.6 -12.7 78 -12 -12 1024.6 1019.9 -10.3
00 23.02 СВ 1 10 км ясно -4.2 -10.1 63 -6 -3 1025.6 1021.0 -11.7
03 23.02 С 6
{10}
20 км ясно +3.5 -16.6 21 -1 +2 1024.2 1019.7
06 23.02 С 3 20 км ясно +5.8 -17.5 17 +4 +7 1021.7 1017.3
09 23.02 Ю 2 20 км ясно +3.6 -17.1 20 +2 +2 1020.1 1015.7 +6.3
12 23.02 Ю 3 20 км ясно +0.1 -15.2 31 -3 -3 1019.6 1015.1
15 23.02 Ю 4
{12}
20 км ясно -0.1 -6.3 63 -5 -5 1017.7 1013.2
18 23.02 Ю 4
{10}
20 км 10/0
[Ci fib]
-0.2 -5.5 67 -5 -5 1016.2 1011.7
21 23.02 Ю 5-10
{13}
20 км ясно +1.0 -3.7 71 -5 -5 1014.2 1009.7 -0.6
00 24.02 Ю 4
{11}
10 км 9/0
[Ac trans Ci fib]
+1.7 -3.8 67 -3 -2 1014.3 1009.8
03 24.02 Ю 3 10 км 10/0
[Ac lent Ci fib]
+7.9 -7.5 33 +6 +10 1012.6 1008.3

 

Местоположение метеостанции Тимирязевский (Приморский край, Россия): широта 43.88 долгота 131.90 высота над уровнем моря 36 м.

В архиве по умолчанию представлена погода в Тимирязевском за последнюю неделю. Архивные данные за месяц целиком и за предыдущие месяцы, начиная с января 2011 года, Вы можете получить, выбрав интересующий диапазон дат из раскрывающегося списка и нажав кнопку "Ввод!".


*Определитесь, кто Вы:
робот инопланетянин человек

Внимание! Время в таблицах - всемирное. Для получения местного времени необходимо прибавить поправку, которая равна 10 ч.

Смотрите также архив погоды в соседних городах и на ближайших метеорологических станциях:

Погода в Полтавке (Приморский край, Россия) (51 км)
Погода в Хороле (Приморский край, Россия) (62 км)
Погода в Многоудобном (Приморский край, Россия) (65 км)
Погода в Пограничном (Приморский край, Россия) (75 км)
Погода в Суйфэньхэ (Хэйлунцзян, Китай) (82 км)
Погода в Владивостоке (Приморский край, Россия) (85 км)
Погода в Барабаше (Приморский край, Россия) (86 км)
Погода в Анучино (Приморский край, Россия) (89 км)
Погода на Мысе Назимова (Приморский край, Россия) (92 км)
Погода в Астраханке (Приморский край, Россия) (94 км)

Пояснения к столбцам:

Ветер - указаны скорость ветра в м/с - средняя за 10 мин, порывы в срок и между сроками (в фигурных скобках) и направление, откуда дует ветер: С - северный, СВ - северо-восточный, В - восточный, ЮВ - юго-восточный, Ю - южный, ЮЗ - юго-западный, З - западный, СЗ - северо-западный.
Видимость - горизонтальная дальность видимости в метрах или километрах. При видимости от 1 до 10 км при отсутствии осадков обычно наблюдается дымка, при ухудшении видимости до 1 км и менее - туман. В сухую погоду видимость может ухудшаться дымом, пылью или мглою.
Явления - указаны атмосферные явления, наблюдавшиеся в срок или в последний час перед сроком; фигурными скобками обозначены явления, наблюдавшиеся между сроками (за 1-3 часа до срока); квадратными скобками обозначены град или гололедные отложения с указанием их диаметра в мм.
Облачность - указаны через наклонную черту общая и нижняя облачность в баллах и высота нижней границы облаков в метрах; квадратными скобками обозначены формы облаков: Ci - перистые, Cs - перисто-слоистые, Cc - перисто-кучевые, Ac - высококучевые, As - высокослоистые, Sc - слоисто-кучевые, Ns - слоисто-дождевые, Cu - кучевые, Cb - кучево-дождевые. Подробнее классификацию облаков см. в Атласе облаков (PDF).
T - Температура воздуха - температура, измеренная на высоте 2 м над землей.
Td - Температура точки росы - температура, при понижении до которой содержащийся в воздухе водяной пар достигнет насыщения.
f - Относительная влажность воздуха - влажноcть воздуха, измеренная на высоте 2 м над землей.
Te - Эффективная температура - температура, которую ощущает одетый по сезону человек в тени. Характеристика душности погоды. При расчете учитывается влияние влажности воздуха и скорости ветра на теплоощущения человека.
Tes - Эффективная температура на солнце - температура, которую ощущает человек, с поправкой на солнечный нагрев. Характеристика знойности погоды. Зависит от высоты солнца над горизонтом, облачности и скорости ветра. Ночью, в пасмурную погоду, а также при ветре 12 м/с и более поправка равна нулю.
P - Атмосферное давление - приведенное к уровню моря атмосферное давление.
Po - Атмосферное давление - измеренное на уровне метеостанции атмосферное давление.
Tmin - Минимальная температура - минимум температуры воздуха на высоте 2 м над землей.
Tmax - Максимальная температура - максимум температуры воздуха на высоте 2 м над землей.
R - Количество осадков - Количество выпавших осадков за период времени, мм. При наведении курсора мыши на число - период времени, за который выпало указанное количество осадков.
R24 - Количество осадков - Количество выпавших осадков за 24 часа, мм.
S - Снежный покров - Высота снежного покрова, см. При наведении курсора мыши на число - состояние снежного покрова и степень покрытия местности в баллах.